UBT795 EGKK-FACT

Flight info

Callsign UBT795
Flight time N/A
Altitude 23000
Route SFD Y47 DRAKE N859 SITET/N0491F350 UN859 SOPIL DCT BALAN DCT EVPOK DCT NARAK DCT GAI DCT LOMRA DCT ROCAN DCT PUMAL DCT XEPLA DCT BCN DCT GARBI DCT LARPA N859 MOGIL UZ333 ZEM/N0488F360 UZ333 KAHIL UB726 GHA/N0491F350 UA615 ATCHA/N0489F370 UA615 TMS UA604 AS DCT MOLIT UA604 OBUDU DCT KOKAM DCT ARASI DCT ODOVA UG861 ONRAV/N0490F390 UG861 MOVOD DCT SETOL DCT LIKAD UR526 VNA UN187 VEDRY/N0486F400 UN185 OKLOK UQ23 DUMDO DCT ERDAS ERDAS1C
Aircraft B789/H-SDE1E2E3FGHIJ2J3J4J5M1RWXY/LB1D1

Departure

Time N/A
Airport London Gatwick Airport (EGKK)

Arrival

Time 2026-05-04 08:16
Airport Cape Town International Airport (FACT)
Time Latitude Longitude Altitude Speed Heading
2026-05-04 07:28 -28.98987 18.53312 39102 ft 566 kts 178°
2026-05-04 07:29 -29.06680 18.54948 39102 ft 565 kts 178°
2026-05-04 07:29 -29.14429 18.56596 39103 ft 566 kts 178°
2026-05-04 07:30 -29.22174 18.58250 39099 ft 565 kts 178°
2026-05-04 07:30 -29.29907 18.59900 39100 ft 565 kts 178°
2026-05-04 07:31 -29.37632 18.61553 39104 ft 566 kts 178°
2026-05-04 07:33 -29.68607 18.68205 39113 ft 567 kts 179°
2026-05-04 07:33 -29.76348 18.69874 39111 ft 565 kts 178°
2026-05-04 07:34 -29.84094 18.71546 39110 ft 566 kts 178°
2026-05-04 07:34 -29.91873 18.73228 39111 ft 568 kts 178°
2026-05-04 07:35 -29.99613 18.74905 39112 ft 570 kts 178°
2026-05-04 07:35 -30.07402 18.76596 39110 ft 568 kts 178°
2026-05-04 07:36 -30.15152 18.78280 39133 ft 566 kts 178°
2026-05-04 07:38 -30.46222 18.85059 39093 ft 568 kts 178°
2026-05-04 07:38 -30.53984 18.86759 39091 ft 566 kts 178°
2026-05-04 07:39 -30.61727 18.88457 39079 ft 566 kts 178°
2026-05-04 07:39 -30.69501 18.90165 39082 ft 569 kts 178°
2026-05-04 07:40 -30.77224 18.91867 39079 ft 567 kts 178°
2026-05-04 07:40 -30.84951 18.93260 39081 ft 554 kts 187°
2026-05-04 07:41 -30.92616 18.93529 39120 ft 552 kts 189°
2026-05-04 07:41 -31.00353 18.94316 39074 ft 560 kts 182°
2026-05-04 07:42 -31.08072 18.95138 39077 ft 553 kts 187°
2026-05-04 07:42 -31.15782 18.95829 39066 ft 557 kts 184°
2026-05-04 07:43 -31.23439 18.96647 39066 ft 555 kts 186°
2026-05-04 07:43 -31.31133 18.97361 39064 ft 554 kts 185°
2026-05-04 07:44 -31.38850 18.98158 39063 ft 554 kts 185°
2026-05-04 07:44 -31.46490 18.98895 39069 ft 554 kts 185°
2026-05-04 07:45 -31.54166 18.99674 39059 ft 552 kts 185°
2026-05-04 07:45 -31.61836 19.00426 39059 ft 553 kts 185°
2026-05-04 07:46 -31.69519 19.01200 39060 ft 554 kts 185°
2026-05-04 07:46 -31.77207 19.01965 39059 ft 553 kts 185°
2026-05-04 07:47 -31.84881 19.02734 39062 ft 553 kts 185°
2026-05-04 07:49 -32.15576 19.05820 39048 ft 554 kts 185°
2026-05-04 07:49 -32.23213 19.06590 39070 ft 555 kts 185°
2026-05-04 07:50 -32.30907 19.07370 39050 ft 555 kts 185°
2026-05-04 07:50 -32.38636 19.08148 39045 ft 559 kts 185°
2026-05-04 07:51 -32.46357 19.08940 39036 ft 555 kts 185°
2026-05-04 07:51 -32.54000 19.09710 39028 ft 554 kts 185°
2026-05-04 07:52 -32.61690 19.10495 39031 ft 555 kts 185°
2026-05-04 07:52 -32.69394 19.11279 39027 ft 555 kts 185°
2026-05-04 07:54 -33.00261 19.14443 39027 ft 557 kts 185°
2026-05-04 07:55 -33.07938 19.15232 39013 ft 556 kts 185°
2026-05-04 07:55 -33.15628 19.16027 39010 ft 553 kts 185°
2026-05-04 07:56 -33.23317 19.16815 39034 ft 557 kts 185°
2026-05-04 07:56 -33.27174 19.17218 38763 ft 554 kts 184°
2026-05-04 07:56 -33.31032 19.17613 37713 ft 559 kts 186°
2026-05-04 07:57 -33.33583 19.17672 37103 ft 550 kts 193°
2026-05-04 07:57 -33.37342 19.17194 36213 ft 537 kts 203°
2026-05-04 07:57 -33.40911 19.16100 35316 ft 523 kts 212°
2026-05-04 07:57 -33.44229 19.14454 34406 ft 510 kts 220°
2026-05-04 07:58 -33.48159 19.11548 33150 ft 492 kts 231°
2026-05-04 07:58 -33.49933 19.09809 32400 ft 485 kts 234°
2026-05-04 07:58 -33.52501 19.07139 31320 ft 490 kts 234°
2026-05-04 07:58 -33.55075 19.04471 30597 ft 486 kts 234°
2026-05-04 07:59 -33.57593 19.01849 29823 ft 482 kts 234°
2026-05-04 07:59 -33.60107 18.99219 29060 ft 477 kts 234°
2026-05-04 07:59 -33.62593 18.96621 28359 ft 471 kts 234°
2026-05-04 07:59 -33.65053 18.94054 27656 ft 465 kts 234°
2026-05-04 08:00 -33.67491 18.91501 26218 ft 471 kts 234°
2026-05-04 08:00 -33.69986 18.88864 25284 ft 475 kts 233°
2026-05-04 08:00 -33.72463 18.86296 24569 ft 468 kts 233°
2026-05-04 08:02 -33.88832 18.69074 17380 ft 438 kts 232°
2026-05-04 08:02 -33.91099 18.66678 16661 ft 428 kts 231°
2026-05-04 08:02 -33.93333 18.64359 15958 ft 419 kts 230°
2026-05-04 08:03 -33.95501 18.62078 15269 ft 410 kts 230°
2026-05-04 08:03 -33.97611 18.59886 14591 ft 405 kts 226°
2026-05-04 08:03 -34.00083 18.58183 13924 ft 411 kts 212°
2026-05-04 08:03 -34.02737 18.56922 13197 ft 409 kts 207°
2026-05-04 08:04 -34.05416 18.55827 12466 ft 404 kts 205°
2026-05-04 08:04 -34.08028 18.54829 11805 ft 375 kts 204°
2026-05-04 08:04 -34.10410 18.53973 11223 ft 341 kts 204°
2026-05-04 08:04 -34.12620 18.53214 10614 ft 320 kts 203°
2026-05-04 08:05 -34.14841 18.52886 10048 ft 333 kts 184°
2026-05-04 08:05 -34.17182 18.53181 9472 ft 339 kts 176°
2026-05-04 08:05 -34.19511 18.53652 8910 ft 337 kts 175°
2026-05-04 08:05 -34.21777 18.54153 8412 ft 332 kts 174°
2026-05-04 08:06 -34.23958 18.54652 7913 ft 311 kts 174°
2026-05-04 08:06 -34.26022 18.55136 7431 ft 290 kts 174°
2026-05-04 08:06 -34.27927 18.55444 6928 ft 264 kts 189°
2026-05-04 08:06 -34.29631 18.54959 6481 ft 243 kts 213°
2026-05-04 08:08 -34.26802 18.48396 4545 ft 234 kts 26°
2026-05-04 08:08 -34.25621 18.49766 4124 ft 239 kts 52°
2026-05-04 08:10 -34.21212 18.64743 2000 ft 230 kts 58°
2026-05-04 08:11 -34.20172 18.66087 1973 ft 215 kts 29°
2026-05-04 08:11 -34.17428 18.66729 2000 ft 199 kts 349°
2026-05-04 08:11 -34.16072 18.66385 1994 ft 200 kts 341°
2026-05-04 08:12 -34.14735 18.65977 2002 ft 197 kts 341°
2026-05-04 08:12 -34.13428 18.65567 1995 ft 187 kts 340°
2026-05-04 08:12 -34.12230 18.65190 1988 ft 168 kts 339°
2026-05-04 08:12 -34.11144 18.64834 1992 ft 157 kts 338°
2026-05-04 08:13 -34.10091 18.64501 1988 ft 156 kts 338°
2026-05-04 08:13 -34.09063 18.64174 1990 ft 154 kts 338°
2026-05-04 08:13 -34.07986 18.63827 2003 ft 163 kts 339°
2026-05-04 08:13 -34.06904 18.63500 1822 ft 156 kts 340°
2026-05-04 08:14 -34.05883 18.63163 1617 ft 150 kts 338°
2026-05-04 08:14 -34.04872 18.62897 1426 ft 146 kts 339°
2026-05-04 08:14 -34.03889 18.62563 1291 ft 149 kts 344°
2026-05-04 08:16 -33.97595 18.60516 156 ft 65 kts 346°
2026-05-04 08:16 -33.97293 18.60421 157 ft 32 kts 345°
2026-05-04 08:16 -33.97132 18.60308 162 ft 24 kts 302°
2026-05-04 08:17 -33.97086 18.60150 169 ft 14 kts 286°
2026-05-04 08:17 -33.97083 18.60135 169 ft 0 kts 286°
2026-05-04 08:17 -33.97080 18.60125 169 ft 4 kts 286°
2026-05-04 08:19 -33.96715 18.59839 170 ft 9 kts 335°
2026-05-04 08:19 -33.96699 18.59795 170 ft 6 kts 268°
2026-05-04 08:20 -33.96705 18.59753 170 ft 2 kts 255°
2026-05-04 08:20 -33.96707 18.59743 170 ft 0 kts 255°